Vertical_Velocity
-0 -0 0 -0 -0 0 0 0 0 0 0 0 -0 -0 -0 0 0 0 0 0 0 0 0 0 1 0 0 0 0 0 1 0 0 0 0 0 0 -0 -0 -0 -0 -1 -1 -1 -1 -1 -1 -1 -1 -1 -1 -1 -1 -1 -1 -1 -1 -1 -1 -1 -1 -1 -1 -1 -0 -0 -1 -1 -0 -0 -0 -0 -0 -0 -0 -0 -0 -0 -0 0 0 0 0 -0 -0 0 0 -0 -0 -0 -0 -0 -0 -0 -0 -0 -0 0 0 0 0 -0 -0
-1 -1 -0 -0 -0 0 0 0 0 0 0 0 -0 -0 0 0 0 0 0 0 0 0 0 0 0 0 0 0 -0 -0 0 0 0 0 0 -0 -0 -1 -1 -1 -1 -1 -1 -1 -1 -1 -1 -1 -1 -1 -1 -1 -1 -1 -1 -1 -1 -1 -1 -1 -1 -1 -1 -1 -0 -1 -1 -1 -0 -0 -0 -0 -0 -0 -0 -1 -1 -0 -0 -0 -0 -0 -1 -1 -0 -0 -0 0 0 -0 -0 -0 -0 -0 -0 0 0 0 0 0 0 0 0
-1 -0 -0 -0 -0 -0 0 0 0 0 -0 -0 -0 -0 0 0 0 0 0 0 0 0 0 0 -0 -0 -0 -1 -1 -1 -1 -1 -1 -1 -1 -1 -1 -1 -1 -1 -1 -1 -1 -1 -1 -1 -1 -1 -1 -0 -0 -0 -0 -0 -0 -0 -0 -0 -0 -0 -0 -0 -1 -1 -0 -0 -0 -0 0 0 -0 -0 -0 -0 -0 -1 -1 -1 -1 -0 -0 -0 -0 0 0 0 -0 0 0 -0 0 0 0 0 0 0 0 0 0 1 1 1 1
-0 -0 -0 -0 -0 -0 -0 -0 -0 -0 -0 -0 -1 -0 -0 0 0 0 0 0 0 -0 -0 -0 -0 -0 -0 -1 -1 -1 -1 -1 -1 -1 -1 -1 -1 -1 -1 -1 -1 -1 -1 -1 -0 -0 -0 -0 0 0 0 0 0 0 0 0 0 0 0 0 0 0 -0 -0 -0 0 0 0 0 0 -0 0 0 0 0 -0 -0 -0 -0 -0 0 0 0 0 1 1 0 -0 -0 0 0 0 0 0 0 0 0 1 1 1 1 1 1
-1 -0 -0 -0 -0 -0 -0 -1 -1 -1 -1 -1 -1 -1 -0 -0 0 0 0 0 -0 -0 -0 -0 -0 -0 -0 -1 -1 -1 -1 -1 -1 -1 -2 -2 -2 -2 -1 -1 -1 -1 -1 -0 -0 0 0 0 0 0 0 0 0 0 0 0 0 0 0 0 0 0 0 0 0 1 1 1 1 0 0 0 0 0 0 0 0 0 0 0 0 0 -0 0 0 0 0 0 0 1 1 0 0 0 0 0 0 1 1 1 1 1 1
-1 -1 -0 -0 -0 -1 -1 -1 -1 -1 -1 -1 -1 -1 -1 -0 0 0 0 -0 -0 -0 -0 -0 -0 -0 -0 -0 -0 -1 -1 -1 -1 -1 -1 -1 -1 -1 -1 -1 -1 -1 -0 -0 0 0 0 0 1 0 0 0 0 0 0 0 0 0 0 0 0 0 0 1 1 1 1 1 1 1 1 1 1 0 0 0 0 0 0 0 0 0 0 0 0 0 0 -0 -0 0 -0 -0 0 1 1 0 0 0 0 0 1 1 1
-1 -1 -1 -1 -1 -1 -1 -1 -1 -1 -1 -1 -1 -1 -1 -1 -0 -0 -0 -0 -0 -0 -0 -0 -0 -0 -0 -0 -0 -0 -0 -0 -1 -1 -1 -1 -1 -1 -0 -0 -0 -0 -0 -0 -0 0 0 0 0 0 0 -0 -0 -0 0 -0 -0 -0 -0 -0 -0 -0 -0 0 1 1 1 1 1 1 1 1 1 1 1 0 0 0 0 0 0 0 -0 -0 0 0 1 0 0 0 0 0 1 1 0 0 0 0 -0 0 0 0 0
-1 -1 -1 -1 -1 -1 -1 -1 -1 -1 -1 -1 -1 -1 -1 -1 -0 -0 -0 -0 -0 -0 -0 -0 -0 -0 -0 -0 -0 -0 -0 -1 -1 -1 -1 -1 -0 0 0 0 0 0 -0 -0 -0 -0 -0 -0 -0 -1 -1 -1 -1 -1 -0 -0 -1 -1 -1 -1 -1 -1 -1 -0 0 1 2 1 1 0 0 1 0 0 0 0 0 0 1 1 0 0 0 0 0 0 0 0 0 0 0 0 0 0 0 -0 -0 -0 -0 -0 -1 -1 -1
-1 -1 -1 -1 -1 -0 -0 -1 -1 -1 -1 -1 -1 -1 -1 -1 -0 -0 -1 -1 -1 -0 -0 -0 -0 -0 -0 -0 -0 -0 -0 -0 -1 -1 -1 -1 -0 0 0 0 0 -0 -0 -0 -0 -0 -0 -1 -1 -1 -1 -1 -1 -1 -1 -1 -1 -1 -1 -1 -1 -1 -1 -1 -0 1 1 1 0 0 0 0 0 -0 -0 0 0 0 0 0 0 0 0 0 0 0 -0 0 0 -0 -0 -0 -0 -0 0 -0 -0 -0 -0 -0 -1 -1 -1
-1 -1 -1 -1 -0 -0 -0 -0 -1 -1 -1 -1 -1 -0 -0 -1 -1 -1 -1 -0 -0 -0 0 0 0 0 -0 -0 -0 -0 -0 -0 -1 -1 -1 -1 -1 -1 -1 -1 -1 -1 -0 -0 0 0 0 -1 -1 -1 -1 -1 -1 -1 -0 -1 -1 -1 -1 -1 -1 -1 -1 -1 -0 0 0 0 0 1 2 0 0 0 -0 -0 -0 0 -0 0 0 0 0 0 0 -0 -0 -0 0 0 1 0 0 0 0 0 -0 -0 -1 -1 -1 -0 -0
-0 -0 -0 -0 -0 -0 -0 -1 -1 -1 -1 -1 -1 -1 -1 -1 -1 -1 -1 -0 0 0 0 0 0 0 -1 -1 -1 -1 -1 -0 -1 -1 -1 -1 -1 -1 -1 -1 -1 -0 -0 0 0 0 0 0 -0 -0 -1 -0 -0 -0 -0 -1 -1 -0 -0 -1 -1 -1 -1 -1 -0 0 0 0 0 0 1 0 0 -0 -1 -1 -1 -1 -1 -0 -0 0 0 0 0 -0 -0 -0 0 1 3 2 2 2 3 2 1 0 -1 -1 -1 -0 -0
-0 -1 -1 -1 -1 -1 -1 -1 -1 -1 -1 -1 -1 -1 -1 -0 -0 -0 0 0 1 1 1 0 -0 -1 -1 -1 -1 -1 -1 -1 -1 -1 -1 -1 -0 -0 -0 0 0 0 0 0 0 0 0 0 0 0 -0 -0 -0 -0 -0 -1 -1 -1 -1 -0 -0 -0 -1 -1 -0 0 0 0 -0 -1 -1 -1 -1 -1 -0 -1 -1 -1 -1 -1 -0 -0 0 0 -0 -0 -0 -1 -1 -0 -0 0 1 2 1 2 2 1 -0 -0 0 0 -0
-0 -1 -1 -1 -1 -1 -1 -1 -1 -0 -0 -0 -0 -0 -0 0 0 1 0 1 0 0 -0 -1 -1 -1 -2 -1 -1 -1 -0 -0 -0 -0 -0 -0 0 0 0 0 0 0 0 0 0 0 0 0 0 0 0 -0 -0 -0 -0 -0 -0 -1 -1 -0 -0 -0 -0 -0 -0 0 0 0 -0 -0 -1 -1 -1 -1 -0 -1 -1 -0 -0 -0 -0 -0 0 -0 0 0 -0 -0 -1 -1 -1 -1 -1 -0 -0 0 0 1 1 1 -0 0 3
-0 -0 -1 -1 -1 -1 -0 -0 -0 -0 -0 -0 0 0 0 0 0 0 0 0 -0 -1 -1 -1 -1 -1 -1 -1 -0 0 0 0 0 0 0 0 0 0 0 0 0 0 0 0 0 -0 -0 -0 -0 -0 0 0 -0 -0 -0 -0 -0 -0 -0 -0 -0 -0 -0 -0 -0 0 0 0 -0 -0 -0 -1 -1 -1 -0 -1 -1 -1 -0 0 0 -0 -0 -0 0 0 0 0 0 -0 -1 -1 -1 -1 -1 -1 -1 0 2 1 0 0 3
0 0 -0 -0 -0 -0 -0 -0 -0 -0 -0 -0 -0 -0 0 -0 -0 -1 -1 -1 -1 -1 -1 -1 -1 -0 -0 0 0 0 0 0 0 0 0 0 0 0 0 0 0 0 0 0 0 -0 -0 -0 -0 -0 -0 -0 -0 -0 -0 -0 -0 -0 -0 -0 -0 -0 -0 -0 -0 0 0 0 -0 -0 -0 -0 -0 -0 -0 -1 -0 0 0 2 1 -1 0 0 0 0 0 -0 0 1 0 0 0 -1 -1 -1 -1 -0 1 0 1 1 0
0 0 0 -0 -0 -0 -0 -0 -0 -0 -0 -0 -0 -0 -0 -1 -1 -1 -1 -1 -1 -1 -1 -0 -0 0 0 1 1 1 1 0 0 0 0 -0 -0 0 -0 -0 -0 -0 -0 0 0 0 -0 -0 -0 -0 -0 -0 -0 -0 -0 -0 -0 -0 -0 -0 -0 -0 -0 -0 -0 0 0 0 0 0 0 -0 -0 -0 -0 -0 0 1 -0 1 0 0 0 0 1 0 -0 -2 0 2 2 3 3 2 1 2 1 1 1 0 0 0 1
-0 0 0 -0 -0 -0 -0 -1 -1 -1 -1 -1 -0 -1 -1 -1 -1 -1 -1 -1 -1 -0 -0 -0 0 0 0 1 0 0 0 0 0 -0 -0 -0 -0 -0 -0 -0 -1 -1 -0 -0 -0 -0 0 -0 -0 -0 -0 -0 -0 -0 -0 -0 -0 -0 0 0 0 -0 -0 -0 -0 -0 0 -0 0 0 0 0 0 -0 -0 -0 0 0 -0 -0 -0 0 0 0 0 0 -1 -1 0 1 2 3 3 3 3 2 3 3 2 1 1 2 2
-0 0 0 -0 -0 -1 -0 -1 -1 -1 -0 -0 -0 -0 -0 -1 -1 -1 -0 -0 -0 -0 -0 0 0 0 0 0 0 0 0 -0 -0 -0 -0 -1 -1 -1 -1 -1 -1 -1 -1 -1 -1 -0 -0 -0 -0 -0 -0 -0 -0 -0 -1 -1 -1 -0 -0 -0 -0 -0 -0 -0 -1 -0 -0 -0 -0 0 0 0 0 -0 -1 0 0 0 0 0 0 -0 -0 -1 -0 -0 -1 0 1 1 0 0 0 -0 1 2 2 1 1 1 2 2 1
-0 -0 -0 -0 -1 -0 -0 -1 -1 -1 -0 -0 -0 -0 -0 -0 -0 -1 -1 -1 -0 -0 0 0 0 0 0 0 0 0 -0 -0 -0 -0 -1 -1 -1 -1 -1 -1 -1 -1 -1 -1 -1 -1 -1 -0 -0 -0 -0 -0 -1 -1 -1 -1 -1 -1 -1 -1 -1 -1 -1 -1 -1 -1 -1 -1 -1 -0 -0 0 -0 -0 -1 -0 0 0 0 0 -0 -1 -1 -1 -1 -1 -1 0 0 -0 -1 -1 -2 -2 0 1 1 1 0 1 1 0 -0
0 -0 -0 -0 -1 -0 -0 -1 -0 -0 -0 -0 -0 -0 -0 -0 -1 -1 -1 -1 -0 -0 0 0 0 0 0 0 0 -0 -0 -0 -0 -0 -1 -1 -1 -1 -1 -1 -1 -1 -1 -1 -1 -1 -1 -1 -1 -1 -0 -0 -0 -0 -0 -1 -1 -1 -1 -1 -1 -1 -1 -1 -1 -1 -1 -1 -1 -1 -1 -1 -1 -1 -0 -0 -0 0 0 0 0 -0 -1 -2 -2 -1 -0 0 0 -0 -1 -0 -1 -1 1 0 0 0 0 0 0 0 -0
0 -0 -0 -0 -0 -0 -0 -1 -0 -0 0 -0 -0 -1 -0 -0 -0 -1 -1 -1 -1 -0 0 0 0 0 0 0 0 0 -0 -0 -0 -0 -0 -1 -1 -1 -1 -1 -1 -1 -1 -1 -1 -1 -1 -1 -1 -1 -1 -1 -0 -0 -0 -0 -0 -0 -0 -0 -0 -0 -1 -1 -1 -1 -1 -1 -1 -1 -1 -1 -1 -1 -1 -1 -0 -0 -0 0 0 -0 -2 -3 -2 -1 0 0 -0 -0 -1 -0 -0 0 1 0 -0 0 0 1 1 1 1
0 0 -0 -0 -0 -0 -0 -0 -0 0 0 0 -0 -0 -0 -0 -0 -0 -0 -1 -1 -1 -0 -0 -0 -0 -0 -0 -0 0 0 0 0 -0 -0 -0 -0 -1 -0 -0 -0 -0 -0 -0 -1 -1 -1 -1 -1 -1 -1 -0 -0 0 -0 0 0 0 0 0 0 0 0 -0 -1 -1 -1 -1 -1 -1 -1 -1 -1 -1 -1 -1 -1 -0 -0 0 0 -0 -2 -3 -2 -0 1 0 -0 -1 -1 -1 0 1 1 0 -0 0 0 2 3 3 2
0 0 0 -0 -0 -0 -0 0 0 0 0 0 -0 -0 -0 -0 -0 -0 -0 -0 -1 -1 -0 -0 -0 -1 -1 -1 -1 -0 -0 -0 0 0 -0 -0 -0 -0 -0 -0 -0 -0 0 -0 -0 -1 -1 -1 -1 -1 -1 -0 0 0 0 0 0 0 1 1 1 0 0 -0 -1 -1 -1 -0 -1 -1 -1 -1 -1 -1 -0 -1 -1 -0 -0 -0 0 -0 -2 -3 -2 -1 1 0 0 -0 -1 -0 0 1 1 0 -0 -1 -0 0 1 2 2
0 0 0 0 0 0 0 0 0 0 -0 -0 -0 -0 -1 -0 -0 -0 -0 -0 -0 -1 -1 -1 -1 -1 -1 -1 -1 -1 -1 -0 -0 -0 -0 -0 -0 -0 -0 -0 -0 0 0 0 -0 -0 -1 -1 -1 -0 -0 0 0 0 -0 -0 0 0 1 1 1 0 0 -0 -1 -1 -1 -0 -0 -0 -1 -1 -1 -1 -0 -0 -0 -0 -0 -0 0 -0 -2 -3 -3 -2 -1 -0 0 0 0 1 1 1 1 1 0 -0 -1 -0 0 0 1
0 0 -0 0 0 0 0 1 0 -0 -1 -1 -1 -0 -0 -0 -0 -1 -1 -0 -0 -0 -1 -1 -1 -1 -1 -1 -1 -1 -0 -0 -0 0 0 -0 -0 -0 -0 -0 0 0 0 0 -0 -0 -1 -1 -1 -0 -0 0 0 0 -0 -1 -0 0 1 1 0 0 0 -0 -0 -1 -1 -0 0 0 0 -1 -1 -0 -0 -0 -0 -0 -0 0 0 -0 -1 -1 -2 -2 -2 -1 -1 0 0 1 2 2 1 1 0 -0 -1 -0 0 0 0
0 -0 -0 0 0 0 0 0 0 -1 -1 -1 -1 -1 -1 -0 -1 -1 -1 -0 -0 -0 -0 -0 -1 -1 -1 -0 -0 0 0 0 0 0 0 0 0 -0 -0 -0 0 0 0 -0 -0 -0 -1 -1 -0 -0 0 0 0 0 -1 -1 -1 0 0 0 0 0 0 0 -0 -0 -1 -0 0 0 1 -0 -0 -0 -0 -0 -0 -1 -1 0 1 0 0 -0 -1 -2 -2 -2 -2 -1 -0 1 1 2 1 1 1 0 -0 0 0 0 0
-0 -0 -0 -0 -0 -0 -0 -0 -1 -1 -2 -2 -1 -1 -1 -1 -1 -0 -0 -0 -0 -0 -0 0 0 0 0 0 0 0 0 0 0 0 0 0 -0 -0 -1 -0 -0 -0 -0 -0 -0 -0 -1 -1 -0 -0 0 0 0 -0 -1 -1 -1 -0 0 0 0 1 1 0 0 -0 -0 -0 0 0 1 0 -0 -1 -0 -0 -1 -1 -1 0 1 1 1 -0 -1 -1 -1 -1 -2 -2 -1 0 1 1 1 1 2 1 0 0 0 1 0
-0 -0 -0 -0 -0 -1 -1 -1 -2 -2 -2 -1 -1 -1 -1 -1 -0 0 0 0 0 0 0 0 0 0 0 0 1 0 0 0 0 -0 -0 -0 -0 -1 -1 -1 -1 -0 -0 -0 -0 -0 -0 -0 -0 -0 0 0 0 -0 -1 -1 -1 -0 -0 0 0 1 1 1 0 0 -0 -0 0 0 0 0 -0 -0 -0 -1 -1 -1 -1 -0 1 1 0 -0 -0 -0 0 -1 -2 -2 -1 -1 -1 0 0 1 2 2 0 0 0 0 1
-0 -0 -0 -0 -1 -1 -2 -2 -2 -2 -2 -1 -1 -0 -0 0 0 1 1 1 0 0 0 0 0 0 0 0 0 0 0 -0 -0 -0 -0 -1 -1 -1 -1 -1 -1 -1 -0 -1 -1 -1 -1 -0 -0 -0 -0 -0 0 0 0 -0 -1 -0 -0 0 0 0 1 0 0 0 0 0 0 0 0 0 0 -0 0 -0 -1 -2 -2 -0 0 0 0 -0 -0 0 0 -1 -1 -2 -1 -2 -1 -1 -0 1 1 1 1 1 1 1 1
-1 -1 -1 -1 -1 -2 -2 -2 -2 -1 -1 -1 -0 0 1 1 1 1 1 1 1 0 0 0 0 0 0 0 0 -0 0 0 0 -0 -0 -1 -1 -1 -1 -1 -1 -1 -0 -0 -0 -0 -0 -0 -0 -0 -0 -0 0 0 0 0 0 0 0 0 0 0 0 0 0 0 0 0 0 0 0 0 -0 -0 -0 0 -0 -1 -1 -1 -0 -0 -0 -1 -1 -1 -1 -0 -1 -1 -1 -2 -1 -1 -0 -0 -0 0 0 1 1 1 1
-1 -1 -1 -1 -2 -2 -2 -2 -1 -0 0 1 1 1 1 1 1 1 1 0 0 0 0 0 0 0 0 0 0 -0 -0 0 0 0 -0 -1 -1 -1 -1 -1 -1 -0 0 0 0 0 0 -0 -0 -1 -1 -0 -0 0 0 0 0 0 0 0 0 0 0 0 0 0 0 0 0 0 0 0 -0 -0 0 0 0 -0 -1 -1 -0 0 0 -1 -1 -1 -1 -1 -0 -1 -1 -1 -1 -1 -1 -1 -1 -0 -0 0 0 0 0
-0 -1 -1 -1 -2 -2 -2 -1 -0 0 1 2 2 1 1 1 1 0 -0 -0 -0 -0 0 0 0 0 0 0 0 0 0 0 0 0 0 0 -0 -1 -0 -0 -0 -0 0 0 0 0 0 -0 -0 -1 -1 -1 -0 0 0 0 1 0 0 0 0 0 0 0 0 0 0 0 0 0 0 -0 -0 -0 -0 0 0 0 0 0 0 0 -0 -1 -1 -1 -1 -1 -0 -1 -1 -1 -1 -1 -1 -1 -1 -1 -0 -0 0 0 0
-0 -0 -1 -1 -1 -1 -1 -0 0 1 1 2 2 1 1 1 0 -0 -1 -1 -1 -0 -0 0 0 0 0 0 0 1 1 1 0 0 0 0 0 -0 -1 -0 -0 0 0 0 0 0 0 0 -0 -1 -1 -1 -1 -0 0 0 0 0 0 0 0 0 0 0 0 0 -0 -0 -0 -0 -0 -0 -0 -0 -1 -0 0 0 0 1 1 0 -0 -0 -0 -0 -0 -0 -0 -0 -0 -0 -1 -1 -1 -1 -1 -1 -0 -0 -0 -0 -0
0 -0 -1 -1 -1 -0 -0 0 0 0 1 1 1 1 0 -0 -1 -1 -1 -1 -0 0 0 0 0 0 1 1 1 1 1 1 1 0 0 0 0 -0 -1 -1 -1 -0 0 0 0 -0 -0 -0 -1 -1 -1 -1 -1 -1 -0 -0 -0 -0 0 0 0 0 -0 -0 -0 -0 -0 -0 -0 -1 -1 -1 -1 -1 -1 -1 -1 -0 0 0 0 0 -0 0 0 0 0 0 0 0 0 0 -0 -1 -1 -1 -1 -0 -0 -0 -0 -0 -0
0 -0 -1 -1 -0 0 0 0 0 0 0 1 1 0 -0 -1 -1 -1 -0 0 0 0 1 1 1 1 1 1 0 0 1 1 0 0 -0 -0 -0 -0 -1 -1 -1 -1 -0 0 -0 -0 -1 -1 -1 -1 -1 -1 -1 -1 -0 -0 -0 -0 -0 0 0 -0 -0 -0 -0 -0 -1 -1 -1 -1 -1 -1 -1 -1 -1 -1 -1 -1 -0 -0 0 -0 -0 -0 -0 -0 -0 0 0 0 0 0 -0 -0 -1 -0 -0 -0 -0 -0 -1 -1 -0
0 -0 -0 -0 0 0 0 0 0 0 0 0 0 -0 -1 -1 -1 -0 0 1 1 1 1 1 1 1 0 0 0 0 0 0 -0 -0 -0 -1 -1 -1 -1 -1 -1 -1 -1 -0 -0 -1 -1 -1 -1 -1 -1 -1 -1 -1 -1 -1 -1 -1 -0 -0 -0 0 -0 -0 -0 -0 -1 -1 -1 -1 -1 -1 -1 -1 -1 -1 -1 -1 -1 -1 -1 -0 -1 -0 -1 -1 -0 -0 -0 -0 -0 -0 -0 -0 -1 -1 -0 -0 -0 -1 -1 -0 -0
0 -0 -0 -0 0 0 0 0 0 0 0 0 -0 -1 -1 -1 -0 0 1 1 0 0 0 0 0 0 0 0 0 0 0 0 -0 -0 -0 -1 -1 -1 -1 -2 -2 -2 -2 -1 -0 -1 -1 -2 -2 -2 -2 -1 -1 -1 -1 -1 -1 -1 -1 -1 -0 -0 0 0 -0 -0 -0 -0 -1 -1 -1 -1 -1 -2 -1 -1 -1 -1 -1 -1 -1 -1 -1 -1 -1 -1 -1 -1 -1 -1 -0 -1 -1 -1 -1 -1 -1 -1 -1 -1 -1 -1 -0
0 -1 -1 -0 0 0 0 0 1 1 0 -0 -1 -1 -0 -0 0 1 0 0 0 -0 -0 -1 -1 -0 -0 -0 0 0 0 1 0 0 0 -0 -1 -1 -1 -2 -2 -2 -2 -1 -1 -0 -1 -2 -2 -2 -2 -1 -1 -1 -1 -1 -1 -1 -1 -1 -1 -0 0 0 0 -0 -0 -0 -1 -1 -1 -1 -1 -2 -2 -2 -1 -1 -1 -1 -1 -1 -1 -1 -1 -1 -1 -1 -1 -1 -1 -1 -1 -1 -1 -1 -1 -1 -1 -1 -1 -1 -1
-1 -1 -1 -0 0 0 0 0 0 0 0 -0 -1 -0 0 0 0 0 0 -0 -0 -0 -1 -1 -1 -1 -1 -1 -1 -0 0 1 1 0 1 1 0 -0 -1 -1 -2 -2 -2 -2 -1 -0 -0 -1 -2 -2 -2 -1 -1 -1 -1 -1 -1 -1 -1 -1 -1 -0 -0 0 0 0 0 -0 -0 -1 -1 -1 -1 -2 -2 -2 -2 -1 -1 -1 -1 -1 -1 -1 -1 -1 -1 -1 -1 -1 -1 -1 -1 -1 -1 -1 -1 -1 -1 -1 -1 -1 -1
-1 -1 -1 0 0 0 0 0 0 0 -0 -0 -0 0 1 0 0 -0 -0 -1 -1 -1 -0 -1 -1 -1 -1 -1 -1 -1 -0 0 0 0 1 1 1 1 0 -1 -1 -2 -2 -1 -1 -0 0 -0 -1 -2 -2 -1 -1 -1 -1 -1 -1 -1 -1 -1 -1 -1 -0 -0 0 0 0 -0 -0 -1 -1 -1 -1 -2 -2 -2 -2 -2 -1 -1 -1 -1 -1 -1 -1 -1 -1 -1 -1 -1 -1 -1 -1 -1 -1 -1 -1 -1 -1 -1 -2 -2 -2
-1 -0 0 0 0 0 0 0 0 0 0 0 0 0 0 0 0 -0 -0 -1 -1 -1 -0 0 -0 -0 -1 -0 -0 -1 -1 -0 -0 0 0 0 1 1 0 -0 -1 -1 -1 -1 -1 -0 0 0 -1 -1 -2 -1 -1 -1 -1 -1 -1 -1 -1 -1 -1 -1 -0 -0 -0 -0 -0 -0 -0 -1 -1 -1 -1 -2 -2 -2 -2 -1 -1 -1 -1 -1 -1 -1 -1 -1 -1 -1 -1 -1 -1 -1 -1 -1 -1 -1 -1 -1 -1 -2 -2 -2 -2
-0 0 0 -0 -0 0 0 0 0 0 0 0 0 0 0 -0 -0 -0 -0 -1 -1 -1 -0 0 1 0 0 0 0 0 -1 -1 -0 -0 0 0 0 1 1 0 -1 -1 -1 -1 -0 -0 0 0 -0 -1 -1 -2 -2 -1 -1 -1 -1 -1 -1 -2 -2 -1 -1 -1 -1 -1 -0 -0 -0 -1 -1 -1 -1 -1 -1 -1 -1 -1 -1 -1 -1 -1 -1 -1 -1 -1 -1 -1 -1 -1 -1 -1 -1 -1 -1 -1 -1 -1 -1 -2 -2 -2 -1
-0 -0 -0 -0 -0 0 0 0 0 0 0 0 -0 -0 -0 -1 -1 -1 -0 -0 -1 -1 0 1 1 1 0 1 1 1 0 0 -0 0 0 0 0 0 1 0 -1 -1 -1 -1 -0 -0 -0 0 -0 -0 -1 -1 -2 -2 -2 -1 -2 -2 -2 -2 -2 -2 -2 -1 -1 -1 -1 -1 -1 -1 -1 -1 -1 -1 -1 -1 -1 -1 -1 -1 -1 -1 -1 -1 -1 -1 -1 -1 -1 -1 -0 -1 -1 -1 -1 -1 -1 -1 -2 -2 -1 -1 -1
-0 -0 -0 -0 0 0 0 0 0 0 0 -0 -0 -1 -1 -1 -1 -1 -1 -0 -0 -1 -0 1 1 1 1 1 1 2 2 1 1 0 0 1 1 1 1 0 -0 -1 -2 -1 -1 -0 -0 -0 -0 -0 -1 -1 -2 -2 -2 -2 -2 -2 -2 -2 -2 -2 -2 -1 -1 -1 -1 -1 -0 -1 -1 -1 -1 -1 -1 -1 -1 -0 -0 -1 -1 -1 -1 -1 -1 -1 -1 -1 -1 -1 -1 -1 -1 -1 -1 -1 -1 -1 -1 -1 -1 -1 -0
-0 -0 0 0 0 0 0 0 0 0 -0 -0 -0 -0 -1 -1 -1 -1 -1 -1 -1 -1 -1 -0 1 2 2 1 1 1 2 2 2 1 1 1 1 1 1 1 -0 -1 -2 -2 -1 -1 -1 -1 -1 -1 -1 -2 -2 -2 -2 -2 -2 -2 -2 -2 -2 -2 -2 -1 -1 -1 -1 -0 -0 -1 -1 -1 -1 -1 -1 -1 -1 -0 -0 -1 -1 -1 -1 -1 -1 -1 -1 -1 -1 -0 -0 -0 -0 -1 -1 -1 -1 -1 -1 -1 -0 -0 -1
-0 0 0 0 0 0 0 0 0 0 -0 -0 -0 -1 -1 -1 -1 -2 -2 -2 -2 -2 -2 -2 -1 0 2 2 1 1 2 2 2 2 2 2 1 1 1 0 0 -1 -2 -2 -2 -2 -2 -2 -1 -1 -2 -2 -2 -2 -2 -2 -2 -2 -2 -2 -2 -2 -2 -1 -1 -0 -0 -0 -1 -1 -1 -1 -1 -1 -1 -1 -1 -0 -0 -0 -1 -1 -1 -1 -1 -1 -1 -1 -0 -0 -0 -0 -0 -0 -0 -1 -1 -1 -1 -1 -1 -1 -1
0 0 0 0 0 0 0 0 0 0 -0 -0 -1 -1 -1 -2 -2 -2 -2 -3 -3 -3 -3 -3 -3 -2 0 1 1 1 1 2 2 2 2 1 1 0 0 -0 -1 -1 -1 -2 -2 -2 -2 -2 -2 -2 -2 -2 -2 -2 -1 -2 -2 -2 -2 -2 -2 -2 -2 -1 -1 -1 -1 -1 -1 -1 -1 -1 -1 -1 -1 -1 -1 -1 -0 -0 -1 -1 -2 -2 -1 -1 -1 -1 -1 -1 -0 -0 -0 -1 -1 -1 -1 -1 -1 -1 -1 -1 -2
0 0 0 0 0 0 0 0 0 -0 -1 -1 -1 -1 -2 -2 -2 -2 -2 -2 -2 -2 -3 -3 -3 -3 -2 -0 1 1 1 1 1 2 2 2 1 -0 -1 -2 -2 -3 -3 -2 -2 -2 -2 -2 -2 -2 -2 -2 -2 -1 -0 -1 -1 -2 -1 -2 -2 -2 -2 -1 -1 -1 -1 -1 -2 -2 -2 -1 -1 -1 -2 -2 -2 -2 -1 -1 -1 -1 -2 -2 -2 -2 -2 -2 -2 -2 -1 -1 -1 -1 -1 -2 -2 -2 -2 -2 -2 -2 -2
0 -0 -0 -0 -0 0 0 0 -0 -0 -1 -1 -1 -1 -1 -1 -1 -1 -1 -1 -1 -1 -2 -2 -2 -2 -2 -1 0 1 1 1 0 1 1 3 3 2 0 -1 -3 -4 -6 -3 -1 -1 -1 -1 -1 -2 -2 -1 -1 -0 0 -0 -0 -1 -0 -0 -1 -1 -1 -0 -0 -1 -1 -1 -2 -2 -2 -2 -2 -2 -2 -2 -2 -2 -2 -2 -2 -2 -2 -2 -2 -2 -2 -2 -2 -2 -2 -2 -2 -2 -2 -2 -2 -2 -2 -2 -2 -2 -3
-0 -0 -0 -0 -0 -0 -0 -0 -0 -0 -1 -1 -1 -1 -1 -1 -0 -1 -1 -0 -0 -1 -1 -2 -2 -1 -2 -2 -1 1 2 2 2 1 0 2 4 6 6 6 5 2 -3 -4 -2 1 2 1 1 0 -0 0 1 1 1 1 1 1 1 1 1 0 1 1 1 0 -0 -1 -1 -1 -1 -1 -1 -1 -1 -2 -2 -2 -2 -3 -2 -2 -2 -1 -1 -1 -1 -2 -2 -2 -2 -2 -2 -2 -2 -2 -2 -2 -2 -2 -2 -2 -3
-0 -0 -0 -0 -0 -0 -0 -0 -0 -0 -0 -0 0 0 0 0 0 0 -0 -1 -1 -1 -1 -2 -2 -2 -1 -2 -1 0 2 3 3 3 1 1 2 4 6 8 11 11 8 1 -0 2 5 5 4 3 1 1 2 2 1 1 1 1 1 2 2 1 2 2 2 2 1 0 0 0 0 0 -0 -0 -1 -1 -1 -2 -2 -2 -2 -2 -2 -1 -1 -0 0 -0 -0 -1 -1 -1 -1 -1 -1 -1 -1 -1 -1 -1 -1 -2 -2
-0 -0 -0 -0 -0 -0 -0 -0 -0 -0 -0 0 0 0 1 1 0 0 0 0 -0 -1 -1 -1 -2 -3 -3 -2 -2 -1 1 2 3 3 2 1 0 1 2 3 5 9 15 12 7 3 5 6 5 4 2 1 1 1 0 0 0 1 2 2 2 2 3 3 4 3 3 3 2 2 3 2 2 1 1 0 -0 -1 -1 -2 -2 -2 -2 -1 -1 -0 0 0 0 0 0 0 0 0 -0 -0 -0 0 0 0 -0 -0 -1
-0 -0 -0 -0 -1 -1 -0 -0 0 0 0 0 0 0 0 0 0 0 0 0 0 -0 -0 -1 -1 -2 -3 -3 -3 -2 -2 0 1 2 2 1 -0 -1 -1 1 1 1 3 8 6 4 5 8 8 6 4 3 2 1 0 1 1 2 2 2 2 3 3 4 4 4 4 3 4 4 5 4 3 3 2 2 1 0 -0 -1 -1 -2 -2 -1 -1 -0 0 0 0 0 0 1 1 0 0 0 0 0 1 1 1 0 0
0 -0 -0 -1 -1 -1 -1 -0 0 1 1 1 0 0 -0 -0 0 0 0 0 0 0 0 -0 -0 -1 -2 -2 -3 -3 -3 -2 -0 0 0 1 0 -1 -4 -2 0 0 -1 2 2 1 1 7 9 10 8 9 8 5 3 3 3 3 3 3 3 3 3 3 4 3 3 3 4 4 5 5 5 4 4 3 2 2 1 1 0 -1 -1 -1 -1 -0 0 0 0 0 1 1 1 0 0 -0 0 0 1 1 1 1 1
0 -0 -0 -1 -1 -1 -0 0 0 0 1 1 0 0 -0 -0 -0 0 0 0 1 1 1 0 0 0 0 -1 -2 -3 -4 -3 -2 -1 -1 -1 -0 -0 -3 -5 -4 -2 -2 -1 0 -0 -5 -2 3 6 6 8 9 8 5 5 5 4 3 3 3 3 3 3 3 3 3 3 3 4 4 4 5 5 4 3 3 3 2 2 1 0 -0 -1 -1 -1 -0 -0 -0 -0 0 0 1 1 0 0 0 0 1 1 1 1 1
0 -0 -0 -1 -1 -1 -0 0 0 0 0 0 0 -0 -1 -0 -0 0 0 0 1 1 1 0 0 1 1 1 -0 -2 -3 -4 -3 -2 -2 -3 -2 -1 0 -3 -6 -9 -10 -9 -6 -4 -3 -4 -4 -2 2 6 7 5 4 5 5 5 3 3 3 3 4 3 3 3 2 3 3 4 3 4 4 4 4 4 4 3 3 2 2 1 1 0 -1 -1 -0 -0 -1 -1 -1 -0 0 1 1 1 0 0 1 1 1 1 1
-0 -0 -0 -0 -0 -0 -0 0 0 0 0 -0 -0 -0 -1 -0 -0 -0 -0 -0 0 1 1 1 1 1 1 2 1 0 -1 -3 -4 -4 -2 -3 -4 -4 -2 -1 -2 -3 -5 -9 -9 -9 -7 -4 -4 -6 -6 4 6 4 2 3 4 5 4 3 3 3 4 3 3 3 3 3 4 4 4 4 4 3 3 4 4 4 4 3 3 2 1 1 0 -0 -0 -0 -1 -1 -1 -1 -0 1 1 1 1 1 1 1 1 1 1
-0 -0 -0 -1 -1 -0 -0 0 0 0 -0 -0 -0 -1 -1 -1 -1 -1 -1 -1 -0 -0 0 1 1 1 1 1 1 1 0 -0 -2 -3 -3 -3 -3 -5 -5 -4 -3 -2 -1 -3 -4 -6 -8 -9 -7 -7 -10 -3 3 7 4 2 1 2 4 3 3 3 3 3 3 3 3 3 4 4 5 4 4 3 3 3 4 4 5 4 4 3 2 1 1 1 0 0 -0 -1 -1 -1 -1 -0 0 1 1 1 1 1 1 1 1
-0 -1 -1 -0 -0 -0 -0 -0 0 -0 -0 -1 -1 -1 -1 -1 -1 -1 -1 -1 -1 -0 0 0 0 1 1 1 1 1 1 1 0 -0 -2 -3 -3 -3 -4 -5 -6 -6 -6 -6 -5 -5 -5 -8 -11 -12 -12 -13 -8 1 11 7 3 0 1 2 3 3 3 3 3 3 3 3 4 4 4 4 4 4 3 3 3 4 4 5 4 3 2 1 1 1 0 0 0 -0 -0 -1 -1 -1 -1 -1 -0 0 0 0 0 0 0
-0 -1 -1 -0 -0 -0 -0 -0 -0 -0 -0 -0 -1 -1 -1 -1 -1 -1 -1 -1 -1 0 0 0 0 1 1 1 0 0 0 0 0 1 1 -1 -2 -2 -1 -2 -4 -5 -5 -6 -7 -7 -6 -6 -7 -9 -11 -15 -17 -13 -1 8 8 3 -0 -0 0 2 3 2 2 2 3 3 3 3 3 4 4 4 4 3 3 3 4 4 4 3 2 1 0 0 0 0 0 0 0 0 -0 -1 -1 -1 -1 -1 -1 -0 0 0 0
-0 -0 -0 -0 -0 -0 -0 -0 -0 -0 -0 -0 -1 -1 -1 -1 -2 -2 -2 -2 -1 -1 0 0 0 0 0 0 0 -0 -0 -0 -0 -0 1 1 -0 -1 -1 0 -1 -2 -2 -3 -4 -5 -6 -7 -6 -5 -6 -10 -14 -16 -15 -3 3 5 3 2 1 -0 -0 0 1 2 2 2 3 3 2 2 3 3 3 2 2 2 2 3 3 2 1 0 -0 -0 -0 -0 -0 -0 0 0 0 -0 -1 -1 -1 -1 -1 -0 -0 0 0
Height
3149 3149 3149 3148 3148 3148 3148 3148 3148 3148 3148 3148 3148 3148 3148 3148 3148 3148 3148 3148 3148 3148 3148 3148 3148 3148 3148 3148 3148 3148 3148 3148 3148 3148 3148 3147 3147 3147 3147 3147 3146 3146 3146 3146 3146 3146 3145 3145 3145 3145 3145 3145 3144 3144 3144 3143 3143 3143 3143 3143 3142 3142 3142 3142 3141 3141 3141 3141 3141 3141 3140 3140 3140 3140 3140 3140 3140 3140 3140 3140 3140 3140 3140 3139 3139 3139 3139 3139 3139 3139 3139 3139 3139 3139 3139 3139 3139 3139 3139 3139 3139 3139 3139
3149 3149 3148 3148 3148 3148 3148 3148 3148 3148 3148 3148 3148 3148 3148 3148 3148 3148 3148 3148 3148 3148 3148 3148 3148 3148 3148 3148 3148 3147 3147 3147 3147 3147 3147 3147 3146 3146 3146 3146 3146 3145 3145 3145 3145 3145 3145 3145 3144 3144 3144 3144 3143 3143 3143 3143 3143 3142 3142 3142 3141 3141 3141 3141 3140 3140 3140 3140 3140 3140 3139 3139 3139 3139 3138 3138 3138 3138 3138 3138 3138 3138 3138 3138 3138 3138 3138 3138 3138 3138 3138 3138 3138 3138 3138 3138 3138 3138 3138 3138 3138 3138 3138
3149 3148 3148 3148 3148 3148 3148 3148 3148 3148 3148 3148 3148 3148 3148 3148 3148 3148 3148 3148 3148 3148 3147 3147 3147 3147 3147 3147 3147 3147 3147 3147 3146 3146 3146 3146 3146 3146 3146 3145 3145 3145 3145 3144 3144 3144 3144 3144 3144 3143 3143 3143 3143 3143 3142 3142 3142 3142 3141 3141 3141 3140 3140 3140 3139 3139 3139 3139 3139 3138 3138 3138 3138 3138 3138 3137 3137 3137 3137 3137 3137 3137 3137 3137 3137 3137 3136 3137 3136 3136 3136 3136 3136 3136 3136 3136 3136 3136 3136 3136 3136 3136 3136
3149 3149 3148 3148 3148 3148 3148 3148 3148 3148 3148 3148 3148 3148 3148 3147 3147 3147 3147 3147 3147 3147 3147 3147 3147 3147 3146 3146 3146 3146 3146 3146 3146 3146 3145 3145 3145 3145 3145 3145 3145 3144 3144 3144 3144 3143 3143 3143 3143 3143 3143 3142 3142 3142 3142 3141 3141 3141 3141 3140 3140 3139 3139 3139 3139 3138 3138 3138 3138 3138 3138 3137 3137 3137 3137 3136 3136 3136 3136 3136 3136 3136 3135 3135 3135 3135 3135 3135 3135 3135 3135 3135 3135 3135 3135 3135 3135 3135 3135 3135 3135 3135 3135
3149 3149 3149 3148 3148 3148 3148 3148 3148 3148 3148 3148 3148 3147 3147 3147 3147 3147 3147 3147 3147 3147 3147 3146 3146 3146 3146 3146 3146 3146 3145 3145 3145 3145 3145 3145 3144 3144 3144 3144 3144 3144 3144 3143 3143 3143 3143 3143 3142 3142 3142 3142 3141 3141 3141 3141 3140 3140 3140 3140 3139 3139 3138 3138 3138 3138 3138 3138 3137 3137 3137 3136 3136 3136 3136 3136 3135 3135 3135 3135 3135 3134 3134 3134 3134 3134 3134 3134 3134 3134 3133 3133 3133 3133 3133 3133 3133 3133 3133 3133 3133 3133 3133
3150 3149 3149 3149 3148 3148 3148 3148 3148 3148 3148 3148 3148 3147 3147 3147 3147 3147 3147 3147 3147 3146 3146 3146 3146 3146 3146 3146 3145 3145 3145 3145 3145 3144 3144 3144 3144 3144 3143 3143 3143 3143 3143 3143 3143 3142 3142 3142 3142 3141 3141 3141 3141 3140 3140 3140 3140 3139 3139 3139 3138 3138 3138 3138 3138 3138 3137 3137 3137 3136 3136 3136 3135 3135 3135 3135 3134 3134 3134 3134 3134 3133 3133 3133 3133 3133 3133 3133 3133 3133 3132 3132 3132 3132 3132 3132 3132 3132 3132 3132 3132 3132 3133
3150 3150 3149 3149 3149 3148 3148 3148 3148 3148 3148 3148 3148 3147 3147 3147 3147 3147 3147 3146 3146 3146 3146 3146 3146 3146 3146 3145 3145 3145 3145 3144 3144 3144 3144 3143 3143 3143 3143 3143 3143 3143 3142 3142 3142 3142 3141 3141 3141 3141 3140 3140 3140 3139 3139 3139 3139 3138 3138 3138 3138 3138 3137 3137 3137 3137 3137 3136 3136 3135 3135 3135 3135 3134 3134 3134 3133 3133 3133 3133 3133 3133 3133 3133 3132 3132 3132 3132 3132 3131 3131 3131 3131 3131 3131 3131 3131 3131 3131 3131 3131 3131 3131
3150 3150 3149 3149 3149 3148 3148 3148 3148 3148 3148 3148 3147 3147 3147 3147 3147 3147 3147 3146 3146 3146 3146 3146 3146 3146 3145 3145 3145 3145 3144 3144 3144 3144 3143 3143 3143 3143 3143 3142 3142 3142 3142 3141 3141 3141 3141 3140 3140 3140 3139 3139 3139 3138 3138 3138 3138 3138 3137 3137 3137 3136 3136 3136 3136 3136 3135 3135 3135 3134 3134 3134 3134 3133 3133 3133 3133 3132 3132 3132 3132 3132 3132 3132 3131 3131 3131 3131 3131 3130 3130 3130 3130 3130 3130 3130 3130 3130 3129 3129 3129 3129 3129
3150 3150 3149 3149 3149 3148 3148 3148 3148 3148 3148 3147 3147 3147 3147 3147 3147 3147 3146 3146 3146 3146 3146 3146 3146 3145 3145 3145 3144 3144 3144 3144 3143 3143 3143 3143 3142 3142 3142 3141 3141 3141 3141 3140 3140 3140 3140 3139 3139 3139 3138 3138 3138 3138 3137 3137 3137 3137 3137 3136 3136 3135 3135 3135 3135 3135 3134 3134 3134 3133 3133 3133 3133 3132 3132 3132 3132 3131 3131 3131 3131 3131 3131 3130 3130 3130 3130 3130 3129 3129 3129 3129 3129 3129 3129 3128 3128 3128 3128 3128 3128 3128 3128
3150 3150 3149 3149 3149 3148 3148 3148 3148 3148 3148 3147 3147 3147 3147 3147 3147 3147 3146 3146 3146 3146 3146 3145 3145 3145 3145 3144 3144 3144 3143 3143 3143 3143 3142 3142 3142 3141 3141 3141 3140 3140 3140 3139 3139 3139 3139 3138 3138 3138 3138 3137 3137 3137 3137 3136 3136 3136 3136 3135 3135 3134 3134 3134 3134 3133 3133 3133 3133 3132 3132 3132 3131 3131 3131 3131 3130 3130 3130 3130 3130 3129 3129 3129 3129 3129 3129 3128 3128 3128 3128 3128 3128 3128 3128 3128 3127 3127 3127 3127 3127 3127 3127
3150 3150 3149 3149 3149 3148 3148 3148 3148 3148 3148 3147 3147 3147 3147 3147 3147 3146 3146 3146 3146 3146 3145 3145 3145 3144 3144 3143 3143 3143 3143 3142 3142 3142 3141 3141 3141 3141 3140 3140 3140 3139 3139 3139 3138 3138 3138 3138 3137 3137 3137 3137 3136 3136 3136 3135 3135 3135 3134 3134 3134 3133 3133 3133 3133 3132 3132 3132 3131 3131 3131 3130 3130 3130 3129 3129 3129 3129 3128 3128 3128 3128 3128 3128 3128 3127 3127 3127 3127 3127 3127 3127 3127 3127 3127 3126 3126 3126 3125 3125 3125 3125 3125
3150 3150 3149 3149 3149 3148 3148 3148 3148 3148 3147 3147 3147 3147 3147 3147 3146 3146 3146 3146 3145 3145 3145 3144 3144 3144 3143 3143 3143 3142 3142 3142 3142 3141 3141 3141 3140 3140 3140 3139 3139 3139 3138 3138 3138 3138 3137 3137 3137 3136 3136 3135 3135 3135 3134 3134 3134 3133 3133 3133 3133 3132 3132 3132 3131 3131 3131 3130 3130 3130 3129 3129 3128 3128 3128 3128 3128 3128 3127 3127 3127 3127 3127 3126 3126 3126 3126 3126 3125 3125 3125 3125 3125 3125 3125 3125 3125 3124 3124 3124 3124 3124 3124
3150 3150 3149 3149 3149 3148 3148 3148 3148 3148 3147 3147 3147 3147 3147 3146 3146 3146 3146 3145 3145 3145 3144 3144 3143 3143 3143 3143 3142 3142 3142 3141 3141 3141 3140 3140 3140 3139 3139 3139 3138 3138 3138 3138 3137 3137 3136 3136 3135 3135 3135 3134 3134 3134 3133 3133 3133 3132 3132 3131 3131 3131 3130 3130 3130 3130 3129 3129 3129 3128 3128 3128 3127 3127 3127 3127 3126 3126 3126 3126 3125 3125 3125 3125 3125 3125 3124 3124 3124 3124 3124 3123 3123 3123 3123 3123 3123 3123 3123 3123 3123 3123 3123
3150 3149 3149 3149 3149 3148 3148 3148 3148 3147 3147 3147 3147 3147 3146 3146 3146 3146 3145 3145 3144 3144 3143 3143 3143 3143 3143 3142 3142 3142 3141 3141 3141 3140 3140 3140 3139 3139 3138 3138 3138 3138 3137 3137 3136 3136 3135 3135 3134 3134 3133 3133 3133 3133 3132 3132 3131 3131 3130 3130 3130 3129 3129 3129 3128 3128 3128 3128 3127 3127 3127 3126 3126 3126 3125 3125 3125 3125 3124 3125 3124 3124 3124 3123 3123 3123 3123 3123 3123 3122 3122 3122 3122 3122 3122 3122 3121 3121 3121 3121 3121 3121 3121
3149 3149 3149 3149 3148 3148 3148 3148 3147 3147 3147 3147 3146 3146 3146 3146 3145 3145 3145 3144 3144 3143 3143 3143 3143 3142 3142 3142 3142 3141 3141 3141 3140 3140 3140 3139 3139 3138 3138 3138 3137 3137 3136 3136 3135 3135 3134 3134 3133 3133 3133 3132 3132 3131 3131 3130 3130 3129 3129 3129 3128 3128 3128 3128 3127 3127 3127 3126 3126 3125 3125 3124 3124 3124 3124 3124 3123 3123 3123 3124 3123 3123 3122 3122 3122 3122 3122 3121 3122 3122 3121 3121 3121 3121 3120 3121 3120 3120 3120 3120 3120 3119 3119
3149 3149 3149 3148 3148 3148 3148 3147 3147 3147 3146 3146 3146 3146 3145 3145 3145 3144 3144 3144 3143 3143 3143 3143 3142 3142 3142 3142 3141 3141 3140 3140 3140 3139 3139 3138 3138 3138 3137 3137 3136 3136 3135 3135 3134 3133 3133 3133 3132 3132 3131 3131 3130 3130 3130 3129 3129 3128 3128 3128 3127 3127 3127 3126 3126 3126 3125 3125 3124 3124 3124 3123 3123 3123 3123 3122 3122 3122 3122 3122 3121 3121 3121 3121 3120 3120 3121 3120 3120 3121 3120 3120 3120 3120 3119 3119 3119 3119 3119 3118 3118 3118 3118
3149 3148 3148 3148 3148 3148 3147 3147 3146 3146 3146 3146 3145 3145 3145 3145 3144 3144 3144 3143 3143 3143 3143 3142 3142 3142 3141 3141 3141 3140 3140 3139 3139 3139 3138 3138 3138 3137 3137 3136 3135 3135 3134 3134 3133 3133 3132 3131 3131 3131 3130 3130 3129 3129 3128 3128 3128 3127 3127 3126 3126 3125 3125 3125 3124 3124 3124 3123 3123 3123 3123 3122 3122 3121 3121 3121 3121 3120 3120 3120 3120 3119 3119 3119 3119 3119 3119 3118 3118 3118 3118 3118 3118 3118 3118 3118 3118 3118 3117 3117 3117 3117 3117
3148 3148 3148 3148 3147 3147 3147 3146 3146 3146 3145 3145 3145 3145 3144 3144 3144 3143 3143 3143 3143 3142 3142 3142 3141 3141 3141 3140 3140 3140 3139 3139 3138 3138 3137 3137 3137 3136 3136 3135 3134 3134 3133 3133 3132 3131 3131 3130 3130 3129 3129 3129 3128 3128 3127 3127 3126 3126 3125 3125 3124 3124 3124 3123 3123 3123 3123 3122 3122 3122 3121 3121 3120 3120 3120 3120 3119 3119 3119 3119 3118 3118 3118 3117 3117 3117 3116 3117 3117 3117 3116 3116 3116 3116 3116 3116 3116 3115 3115 3115 3115 3115 3115
3148 3148 3147 3147 3147 3146 3146 3146 3145 3145 3145 3144 3144 3144 3144 3143 3143 3143 3143 3142 3142 3142 3141 3141 3141 3140 3140 3140 3139 3139 3138 3138 3137 3137 3136 3136 3135 3135 3134 3134 3133 3133 3132 3132 3131 3130 3130 3129 3129 3128 3128 3128 3127 3127 3126 3126 3125 3124 3124 3123 3123 3123 3122 3122 3122 3121 3121 3121 3120 3120 3120 3119 3119 3119 3118 3118 3118 3118 3118 3117 3117 3116 3116 3116 3115 3115 3115 3115 3115 3115 3114 3114 3114 3114 3114 3114 3114 3114 3114 3114 3113 3113 3113
3147 3147 3147 3146 3146 3146 3145 3145 3145 3144 3144 3144 3143 3143 3143 3143 3143 3142 3142 3142 3141 3141 3141 3140 3140 3140 3139 3139 3138 3138 3138 3137 3136 3136 3135 3135 3134 3134 3133 3133 3133 3132 3131 3131 3130 3129 3129 3128 3128 3128 3127 3127 3126 3126 3125 3124 3124 3123 3123 3123 3122 3122 3121 3120 3120 3120 3119 3119 3119 3118 3118 3118 3118 3117 3117 3117 3117 3116 3116 3116 3115 3115 3114 3113 3113 3113 3113 3113 3113 3113 3113 3112 3112 3112 3112 3112 3112 3112 3112 3112 3111 3111 3111
3147 3146 3146 3146 3145 3145 3145 3144 3144 3144 3143 3143 3143 3143 3143 3142 3142 3141 3141 3141 3140 3140 3140 3139 3139 3139 3138 3138 3138 3137 3137 3136 3135 3135 3134 3134 3133 3133 3132 3132 3131 3131 3130 3129 3129 3128 3128 3127 3127 3126 3126 3126 3125 3124 3124 3123 3123 3122 3122 3121 3121 3120 3120 3119 3118 3118 3118 3118 3117 3117 3116 3116 3116 3115 3115 3115 3115 3114 3114 3114 3113 3113 3113 3112 3112 3112 3112 3111 3111 3111 3111 3110 3110 3110 3110 3110 3110 3110 3110 3110 3110 3109 3109
3146 3146 3145 3145 3145 3144 3144 3144 3143 3143 3143 3143 3143 3142 3142 3142 3141 3141 3140 3140 3140 3139 3139 3138 3138 3138 3137 3137 3137 3136 3136 3135 3134 3134 3133 3133 3132 3132 3131 3130 3130 3129 3129 3128 3128 3127 3127 3126 3126 3125 3125 3124 3124 3123 3123 3122 3122 3121 3121 3120 3120 3119 3118 3118 3117 3117 3116 3116 3116 3115 3115 3114 3114 3114 3113 3113 3113 3113 3112 3112 3112 3111 3111 3110 3110 3110 3110 3109 3109 3109 3108 3108 3108 3108 3108 3108 3108 3108 3108 3108 3108 3108 3108
3145 3145 3145 3144 3144 3143 3143 3143 3143 3143 3142 3142 3142 3141 3141 3141 3140 3140 3140 3139 3139 3138 3138 3138 3137 3137 3136 3136 3135 3135 3134 3134 3133 3133 3132 3131 3131 3130 3130 3129 3129 3128 3128 3127 3127 3126 3125 3125 3124 3124 3123 3123 3123 3122 3121 3121 3120 3120 3119 3119 3118 3118 3117 3117 3116 3115 3115 3114 3114 3114 3113 3113 3113 3112 3112 3112 3111 3111 3110 3110 3110 3109 3109 3108 3108 3108 3108 3108 3107 3107 3107 3107 3107 3107 3106 3106 3106 3106 3105 3105 3105 3106 3106
3145 3144 3144 3143 3143 3143 3143 3142 3142 3142 3142 3141 3141 3141 3140 3140 3140 3139 3139 3138 3138 3138 3137 3136 3136 3135 3135 3134 3134 3134 3133 3133 3132 3132 3131 3130 3129 3129 3128 3128 3128 3127 3127 3126 3125 3125 3124 3123 3123 3123 3122 3122 3121 3121 3120 3119 3119 3118 3118 3118 3117 3117 3116 3115 3115 3114 3113 3113 3113 3113 3112 3112 3111 3111 3110 3110 3110 3109 3109 3108 3108 3108 3107 3106 3106 3105 3105 3105 3105 3105 3105 3105 3105 3105 3104 3104 3103 3103 3103 3103 3103 3103 3103
3144 3143 3143 3143 3143 3142 3142 3142 3141 3141 3141 3140 3140 3140 3140 3139 3139 3138 3138 3138 3137 3137 3136 3135 3135 3134 3134 3133 3133 3133 3132 3132 3131 3130 3130 3129 3128 3128 3127 3127 3126 3126 3125 3125 3124 3123 3123 3122 3122 3121 3121 3120 3120 3119 3118 3118 3117 3117 3117 3116 3116 3115 3114 3114 3113 3113 3112 3112 3112 3111 3111 3110 3110 3109 3109 3108 3108 3108 3107 3107 3106 3106 3105 3105 3104 3103 3103 3103 3103 3103 3103 3103 3103 3103 3102 3102 3102 3101 3101 3101 3101 3101 3101
3143 3143 3143 3142 3142 3142 3141 3141 3141 3140 3140 3140 3139 3139 3139 3138 3138 3138 3137 3137 3136 3136 3135 3134 3134 3133 3133 3132 3132 3131 3131 3130 3130 3129 3128 3128 3127 3127 3126 3125 3125 3124 3124 3123 3123 3122 3121 3121 3120 3120 3119 3119 3118 3118 3117 3116 3116 3115 3115 3115 3114 3114 3113 3113 3112 3112 3111 3111 3110 3110 3109 3109 3108 3108 3108 3107 3107 3106 3106 3105 3105 3104 3104 3103 3103 3102 3101 3101 3101 3100 3100 3100 3100 3100 3100 3100 3099 3099 3099 3098 3098 3098 3098
3142 3142 3142 3141 3141 3141 3141 3140 3140 3140 3139 3139 3139 3138 3138 3138 3138 3137 3136 3136 3135 3135 3134 3133 3133 3132 3132 3131 3131 3130 3129 3129 3128 3128 3127 3127 3126 3125 3125 3124 3123 3123 3123 3122 3121 3121 3120 3119 3119 3118 3118 3117 3117 3116 3115 3115 3114 3114 3114 3113 3113 3113 3112 3112 3111 3110 3110 3109 3109 3108 3108 3108 3107 3107 3106 3106 3105 3105 3104 3104 3103 3103 3103 3102 3101 3101 3100 3099 3099 3098 3098 3098 3098 3098 3098 3098 3098 3097 3097 3097 3096 3096 3096
3142 3141 3141 3141 3140 3140 3140 3140 3139 3139 3139 3138 3138 3138 3138 3137 3137 3136 3135 3135 3134 3134 3133 3133 3132 3131 3131 3130 3129 3129 3128 3128 3127 3126 3126 3125 3124 3124 3123 3123 3122 3122 3121 3120 3120 3119 3118 3118 3117 3117 3116 3116 3115 3115 3114 3113 3113 3113 3112 3112 3112 3111 3111 3110 3110 3109 3108 3108 3108 3107 3107 3106 3106 3105 3105 3104 3103 3103 3103 3103 3102 3102 3101 3100 3100 3099 3099 3098 3097 3097 3097 3096 3096 3096 3096 3096 3096 3095 3095 3094 3094 3094 3094
3141 3140 3140 3140 3140 3139 3139 3139 3139 3138 3138 3138 3138 3137 3137 3136 3136 3135 3135 3134 3133 3133 3132 3131 3131 3130 3129 3128 3128 3127 3127 3126 3125 3125 3124 3123 3123 3122 3122 3121 3121 3120 3120 3119 3118 3118 3117 3116 3116 3115 3115 3114 3114 3113 3113 3112 3112 3111 3111 3111 3110 3110 3109 3109 3108 3108 3107 3107 3106 3106 3105 3105 3104 3104 3103 3103 3102 3102 3101 3101 3100 3100 3099 3099 3098 3098 3097 3097 3096 3095 3095 3094 3094 3094 3094 3094 3093 3093 3093 3093 3092 3092 3092
3140 3140 3139 3139 3139 3139 3138 3138 3138 3138 3138 3137 3137 3136 3136 3135 3135 3134 3134 3133 3133 3132 3131 3130 3130 3129 3128 3127 3127 3126 3125 3124 3124 3123 3123 3122 3121 3121 3120 3120 3119 3119 3118 3118 3117 3116 3116 3115 3114 3114 3113 3113 3113 3112 3112 3111 3111 3110 3110 3109 3109 3108 3108 3107 3107 3106 3106 3105 3105 3104 3103 3103 3103 3102 3102 3101 3100 3100 3099 3099 3098 3098 3098 3097 3097 3096 3095 3095 3094 3094 3093 3093 3093 3092 3092 3092 3092 3091 3091 3091 3090 3090 3090
3139 3139 3139 3138 3138 3138 3138 3138 3137 3137 3137 3136 3136 3135 3135 3134 3134 3133 3133 3132 3132 3131 3130 3129 3129 3128 3127 3126 3125 3125 3124 3123 3123 3122 3121 3120 3120 3119 3118 3118 3118 3117 3117 3116 3116 3115 3114 3113 3113 3112 3112 3112 3111 3111 3110 3110 3109 3109 3108 3108 3107 3107 3106 3106 3105 3105 3104 3103 3103 3103 3102 3101 3101 3100 3100 3099 3099 3098 3098 3097 3097 3096 3096 3095 3095 3094 3093 3093 3093 3092 3092 3091 3091 3090 3090 3090 3089 3089 3089 3089 3088 3088 3088
3138 3138 3138 3138 3138 3137 3137 3137 3136 3136 3136 3135 3135 3134 3134 3133 3133 3132 3132 3131 3130 3130 3129 3128 3128 3127 3126 3125 3124 3123 3123 3122 3121 3121 3120 3119 3118 3118 3117 3117 3116 3116 3115 3115 3114 3113 3113 3112 3112 3111 3111 3110 3110 3109 3109 3109 3108 3108 3107 3107 3106 3105 3105 3104 3104 3103 3103 3102 3101 3101 3100 3100 3099 3098 3098 3098 3097 3096 3096 3095 3095 3094 3094 3093 3093 3092 3092 3091 3091 3090 3090 3089 3089 3088 3088 3088 3087 3087 3087 3086 3086 3086 3086
3137 3137 3137 3137 3137 3136 3136 3136 3135 3135 3135 3134 3134 3133 3133 3132 3132 3131 3131 3130 3129 3129 3128 3127 3127 3126 3125 3124 3123 3123 3122 3121 3120 3119 3118 3118 3117 3116 3115 3115 3115 3114 3114 3113 3113 3112 3112 3111 3110 3110 3109 3109 3108 3108 3108 3107 3107 3106 3106 3105 3105 3104 3103 3103 3102 3102 3101 3100 3100 3099 3098 3098 3097 3097 3096 3096 3095 3094 3094 3093 3093 3093 3092 3091 3091 3090 3090 3089 3089 3088 3088 3088 3087 3087 3086 3086 3085 3085 3085 3084 3084 3083 3083
3136 3136 3136 3136 3136 3135 3135 3134 3134 3134 3133 3133 3133 3132 3132 3131 3131 3130 3130 3129 3128 3128 3127 3126 3126 3125 3124 3123 3123 3122 3121 3120 3119 3118 3117 3117 3116 3115 3114 3113 3113 3113 3113 3112 3111 3111 3110 3109 3109 3108 3108 3108 3107 3107 3106 3106 3105 3105 3104 3104 3103 3103 3102 3101 3101 3100 3099 3099 3098 3098 3097 3096 3096 3095 3094 3094 3093 3093 3092 3092 3091 3090 3090 3089 3089 3088 3088 3088 3087 3087 3086 3086 3085 3084 3084 3084 3083 3083 3083 3082 3082 3081 3081
3135 3135 3135 3135 3134 3134 3134 3133 3133 3133 3132 3132 3131 3131 3131 3130 3130 3129 3128 3128 3127 3127 3126 3125 3124 3123 3123 3122 3121 3120 3119 3118 3118 3117 3116 3115 3114 3113 3113 3112 3112 3111 3111 3111 3110 3109 3109 3108 3108 3107 3107 3106 3106 3105 3105 3104 3104 3103 3103 3102 3102 3101 3100 3100 3099 3098 3098 3097 3096 3096 3095 3094 3094 3093 3093 3092 3091 3091 3090 3090 3089 3088 3088 3087 3087 3086 3086 3085 3085 3084 3084 3083 3083 3082 3082 3081 3081 3081 3080 3080 3080 3079 3079
3134 3134 3134 3134 3133 3133 3133 3132 3132 3131 3131 3131 3130 3130 3129 3129 3129 3128 3128 3127 3126 3125 3124 3124 3123 3122 3121 3121 3120 3119 3118 3117 3116 3115 3114 3114 3113 3112 3112 3111 3110 3110 3110 3109 3109 3108 3107 3107 3106 3106 3105 3105 3104 3103 3103 3103 3102 3102 3101 3101 3100 3099 3099 3098 3098 3097 3096 3095 3095 3094 3093 3093 3092 3091 3091 3090 3089 3089 3088 3088 3087 3087 3086 3085 3085 3084 3084 3083 3083 3082 3082 3081 3081 3080 3079 3079 3079 3078 3078 3078 3077 3077 3077
3133 3133 3133 3133 3132 3132 3131 3131 3131 3130 3130 3129 3129 3129 3128 3128 3128 3127 3126 3126 3125 3124 3123 3122 3122 3121 3120 3119 3118 3118 3117 3116 3115 3114 3113 3113 3112 3111 3110 3110 3109 3109 3108 3108 3108 3107 3106 3105 3105 3104 3104 3103 3103 3102 3102 3101 3101 3100 3099 3099 3098 3098 3097 3097 3096 3095 3094 3093 3093 3092 3092 3091 3090 3089 3089 3088 3088 3087 3086 3086 3085 3084 3084 3083 3083 3082 3082 3081 3080 3080 3079 3079 3078 3078 3077 3077 3076 3076 3076 3075 3075 3075 3074
3132 3132 3132 3131 3131 3131 3130 3130 3129 3129 3129 3128 3128 3128 3127 3127 3126 3126 3125 3124 3123 3123 3122 3121 3120 3119 3118 3118 3117 3116 3115 3115 3114 3113 3112 3111 3111 3110 3109 3109 3108 3108 3107 3107 3106 3106 3105 3104 3104 3103 3103 3102 3101 3101 3100 3100 3099 3098 3098 3097 3097 3096 3096 3095 3094 3093 3093 3092 3091 3090 3090 3089 3088 3088 3087 3086 3085 3085 3084 3083 3083 3082 3082 3081 3080 3080 3079 3078 3078 3078 3077 3076 3076 3075 3075 3074 3074 3073 3073 3073 3073 3072 3072
3131 3130 3130 3130 3130 3129 3129 3129 3128 3128 3128 3127 3127 3127 3126 3126 3125 3124 3123 3123 3122 3121 3120 3120 3119 3118 3117 3116 3116 3115 3114 3113 3113 3112 3111 3110 3110 3109 3108 3108 3107 3107 3106 3106 3105 3104 3104 3103 3103 3102 3101 3100 3100 3099 3099 3098 3098 3097 3096 3096 3095 3094 3094 3093 3093 3092 3091 3090 3089 3088 3088 3087 3086 3085 3085 3084 3083 3083 3082 3081 3081 3080 3079 3079 3078 3078 3077 3076 3076 3075 3075 3074 3073 3073 3073 3072 3072 3071 3071 3070 3070 3070 3070
3129 3129 3129 3128 3128 3128 3128 3128 3127 3127 3127 3126 3126 3125 3125 3124 3123 3123 3122 3121 3120 3120 3119 3118 3117 3116 3116 3115 3114 3113 3113 3112 3111 3110 3110 3109 3108 3108 3107 3107 3106 3106 3105 3104 3104 3103 3103 3102 3101 3100 3100 3099 3098 3098 3097 3097 3096 3095 3095 3094 3093 3093 3092 3092 3091 3090 3089 3088 3088 3087 3086 3085 3084 3083 3083 3082 3081 3081 3080 3079 3078 3078 3077 3077 3076 3075 3075 3074 3073 3073 3073 3072 3071 3071 3070 3070 3069 3069 3068 3068 3068 3068 3067
3128 3128 3128 3128 3127 3127 3127 3126 3126 3126 3125 3125 3125 3124 3123 3123 3122 3121 3120 3120 3119 3118 3118 3117 3116 3115 3114 3114 3113 3112 3111 3111 3110 3109 3108 3108 3107 3107 3106 3106 3105 3104 3104 3103 3103 3102 3102 3101 3100 3099 3098 3098 3097 3096 3096 3095 3094 3094 3093 3093 3092 3091 3090 3090 3089 3088 3088 3087 3086 3085 3084 3083 3082 3082 3081 3080 3079 3078 3078 3077 3076 3076 3075 3074 3073 3073 3072 3072 3071 3071 3070 3070 3069 3068 3068 3068 3067 3067 3066 3066 3065 3065 3065
3127 3127 3126 3126 3126 3126 3125 3125 3125 3125 3124 3124 3123 3123 3122 3121 3120 3120 3119 3118 3118 3117 3116 3115 3115 3114 3113 3113 3112 3111 3110 3109 3108 3108 3107 3106 3106 3105 3105 3104 3104 3103 3103 3102 3102 3101 3100 3099 3098 3098 3097 3096 3096 3095 3094 3093 3093 3092 3091 3091 3090 3089 3088 3088 3087 3086 3086 3085 3084 3083 3082 3081 3080 3079 3079 3078 3077 3076 3076 3075 3074 3073 3073 3072 3071 3071 3070 3069 3069 3068 3068 3067 3067 3066 3066 3065 3064 3064 3063 3063 3063 3063 3062
3126 3125 3125 3125 3125 3125 3124 3124 3124 3123 3123 3122 3122 3121 3120 3119 3119 3118 3118 3117 3116 3116 3115 3114 3113 3113 3112 3111 3111 3110 3109 3108 3107 3106 3106 3105 3104 3104 3103 3103 3103 3102 3101 3101 3100 3099 3098 3098 3097 3096 3096 3095 3094 3093 3093 3092 3091 3090 3089 3089 3088 3087 3086 3086 3085 3084 3083 3083 3082 3081 3080 3079 3078 3078 3077 3076 3075 3074 3073 3073 3072 3071 3070 3070 3069 3068 3068 3067 3067 3066 3065 3065 3064 3064 3063 3063 3062 3062 3061 3061 3060 3060 3059
3124 3124 3124 3124 3124 3123 3123 3123 3123 3122 3121 3121 3120 3119 3119 3118 3118 3117 3116 3115 3115 3114 3113 3113 3112 3112 3111 3110 3109 3108 3108 3107 3106 3105 3104 3104 3103 3103 3102 3102 3101 3100 3100 3099 3098 3098 3097 3096 3096 3095 3094 3093 3093 3092 3091 3090 3089 3088 3088 3087 3086 3085 3084 3083 3083 3082 3081 3080 3080 3079 3078 3077 3076 3075 3074 3074 3073 3072 3071 3070 3070 3069 3068 3068 3067 3066 3065 3065 3064 3063 3063 3063 3062 3061 3061 3060 3059 3059 3058 3058 3058 3057 3057
3123 3123 3123 3123 3123 3123 3122 3122 3121 3120 3120 3119 3118 3118 3117 3117 3116 3115 3115 3114 3113 3113 3112 3111 3110 3110 3109 3108 3108 3107 3106 3105 3105 3104 3103 3103 3102 3101 3101 3100 3100 3099 3098 3098 3097 3096 3095 3095 3094 3093 3092 3092 3091 3090 3089 3088 3087 3086 3085 3084 3083 3083 3082 3081 3080 3080 3079 3078 3077 3076 3076 3075 3074 3073 3072 3071 3071 3070 3069 3068 3067 3067 3066 3065 3064 3063 3063 3062 3062 3061 3060 3060 3059 3058 3058 3057 3057 3056 3056 3055 3054 3054 3053
3123 3122 3122 3122 3122 3121 3121 3120 3120 3119 3118 3118 3117 3117 3116 3115 3115 3114 3113 3112 3112 3111 3110 3109 3108 3108 3108 3107 3106 3106 3105 3104 3103 3103 3102 3101 3101 3100 3099 3099 3098 3098 3097 3096 3095 3095 3094 3093 3092 3092 3091 3090 3089 3088 3087 3086 3085 3084 3083 3082 3081 3080 3080 3079 3078 3077 3076 3076 3075 3074 3073 3072 3071 3071 3070 3069 3068 3068 3067 3066 3065 3064 3063 3063 3062 3061 3060 3060 3059 3058 3058 3057 3057 3056 3055 3054 3054 3053 3053 3052 3051 3051 3050
3121 3121 3121 3121 3120 3120 3119 3119 3118 3118 3117 3117 3116 3115 3115 3114 3113 3113 3112 3111 3110 3109 3108 3107 3107 3106 3106 3105 3104 3104 3103 3103 3102 3101 3101 3100 3099 3098 3098 3097 3097 3096 3095 3095 3094 3093 3092 3092 3091 3090 3089 3088 3087 3086 3085 3084 3083 3082 3081 3080 3079 3078 3077 3077 3076 3075 3074 3073 3072 3071 3070 3069 3069 3068 3067 3067 3066 3065 3064 3063 3063 3062 3061 3060 3059 3058 3058 3057 3056 3056 3055 3054 3054 3053 3052 3052 3051 3050 3049 3049 3048 3047 3047
3120 3120 3120 3120 3119 3119 3118 3118 3117 3116 3116 3115 3115 3114 3113 3113 3112 3111 3110 3109 3108 3108 3107 3106 3105 3104 3104 3103 3103 3102 3102 3101 3100 3100 3099 3098 3098 3097 3096 3096 3095 3094 3093 3093 3093 3092 3091 3090 3089 3088 3087 3086 3086 3085 3084 3083 3082 3081 3079 3078 3077 3076 3075 3074 3073 3073 3072 3071 3069 3068 3068 3067 3066 3065 3064 3064 3063 3062 3061 3061 3060 3059 3058 3057 3056 3056 3055 3054 3053 3053 3052 3051 3051 3050 3049 3048 3048 3047 3046 3045 3044 3044 3043
3119 3119 3119 3118 3118 3117 3117 3116 3116 3115 3115 3114 3114 3113 3113 3112 3111 3110 3109 3108 3108 3107 3105 3104 3103 3103 3102 3102 3101 3100 3100 3099 3099 3098 3098 3097 3097 3096 3095 3095 3094 3093 3092 3092 3091 3091 3090 3089 3088 3087 3086 3085 3084 3083 3082 3081 3080 3079 3078 3077 3076 3075 3074 3073 3072 3071 3069 3068 3067 3066 3065 3064 3063 3063 3062 3061 3060 3059 3058 3058 3057 3056 3055 3055 3054 3053 3052 3051 3051 3050 3049 3048 3048 3047 3046 3045 3044 3044 3043 3042 3041 3040 3039
3118 3118 3118 3117 3117 3116 3116 3115 3115 3114 3113 3113 3113 3112 3111 3111 3110 3109 3108 3107 3106 3105 3104 3103 3102 3101 3101 3100 3099 3099 3098 3098 3097 3097 3096 3096 3096 3095 3095 3095 3094 3093 3091 3090 3090 3090 3089 3088 3087 3086 3085 3084 3083 3082 3081 3080 3079 3078 3077 3076 3075 3073 3073 3071 3070 3069 3068 3067 3065 3064 3063 3062 3061 3060 3060 3059 3058 3057 3056 3055 3054 3053 3053 3052 3051 3050 3050 3049 3048 3047 3046 3045 3044 3044 3043 3042 3041 3040 3040 3039 3038 3037 3036
3117 3117 3116 3116 3115 3115 3114 3114 3113 3113 3112 3112 3111 3111 3110 3109 3108 3108 3107 3106 3105 3104 3103 3102 3101 3100 3099 3098 3098 3097 3097 3096 3096 3095 3095 3094 3094 3093 3093 3093 3093 3092 3091 3089 3088 3088 3088 3087 3086 3085 3083 3083 3082 3081 3080 3078 3078 3076 3075 3074 3073 3072 3071 3070 3069 3068 3067 3065 3064 3063 3062 3061 3060 3059 3058 3057 3056 3055 3053 3053 3052 3051 3050 3049 3049 3048 3047 3046 3045 3044 3043 3043 3042 3041 3040 3039 3038 3037 3036 3035 3034 3033 3033
3116 3115 3115 3114 3114 3113 3113 3113 3112 3112 3111 3111 3110 3109 3109 3108 3107 3106 3105 3104 3103 3103 3102 3100 3099 3098 3098 3097 3096 3095 3095 3094 3094 3093 3093 3092 3092 3091 3091 3090 3090 3090 3090 3088 3087 3086 3086 3085 3084 3083 3082 3081 3080 3079 3078 3077 3076 3075 3073 3073 3072 3071 3069 3068 3068 3066 3065 3064 3063 3062 3060 3059 3058 3057 3056 3055 3054 3053 3051 3050 3049 3048 3048 3047 3046 3045 3044 3043 3043 3041 3040 3039 3038 3038 3037 3036 3035 3034 3033 3032 3031 3030 3029
3114 3114 3113 3113 3113 3112 3112 3111 3111 3110 3110 3109 3109 3108 3107 3107 3106 3105 3104 3103 3102 3101 3100 3099 3098 3097 3096 3095 3094 3093 3093 3093 3092 3092 3091 3090 3090 3089 3088 3088 3087 3087 3086 3085 3085 3084 3083 3083 3082 3081 3080 3079 3078 3077 3076 3075 3074 3073 3072 3071 3069 3068 3068 3067 3065 3064 3063 3062 3061 3060 3059 3058 3057 3055 3054 3053 3052 3051 3049 3048 3047 3046 3045 3044 3043 3042 3042 3040 3039 3038 3038 3036 3035 3034 3033 3032 3031 3030 3029 3028 3027 3026 3025
3113 3113 3112 3112 3111 3111 3110 3110 3110 3109 3108 3108 3107 3107 3106 3105 3104 3103 3103 3102 3101 3100 3099 3098 3097 3096 3095 3094 3093 3092 3091 3091 3090 3090 3089 3088 3088 3087 3086 3086 3085 3084 3083 3082 3081 3081 3080 3080 3079 3079 3078 3077 3076 3075 3074 3073 3071 3070 3069 3068 3067 3066 3065 3064 3063 3062 3061 3060 3059 3058 3057 3056 3054 3053 3052 3051 3049 3048 3047 3046 3045 3044 3043 3041 3040 3039 3038 3038 3036 3035 3034 3033 3032 3031 3030 3028 3027 3026 3025 3024 3023 3022 3021
3112 3112 3111 3110 3110 3110 3109 3109 3108 3108 3107 3106 3106 3105 3104 3103 3103 3102 3101 3101 3100 3099 3098 3097 3096 3095 3093 3093 3091 3090 3089 3088 3088 3088 3087 3086 3086 3085 3084 3083 3083 3082 3081 3080 3079 3078 3076 3076 3076 3075 3074 3073 3073 3072 3071 3070 3068 3068 3066 3065 3064 3063 3062 3061 3060 3059 3058 3057 3056 3055 3054 3053 3052 3051 3049 3048 3047 3046 3045 3043 3043 3041 3040 3039 3038 3036 3035 3034 3033 3032 3031 3030 3028 3027 3026 3025 3023 3022 3021 3020 3019 3018 3016
3111 3110 3110 3109 3109 3108 3108 3108 3107 3106 3105 3105 3104 3103 3103 3102 3101 3101 3100 3099 3098 3098 3097 3095 3094 3093 3092 3091 3090 3089 3088 3087 3086 3086 3085 3084 3083 3083 3082 3081 3079 3078 3077 3077 3076 3075 3073 3072 3072 3072 3071 3070 3068 3068 3067 3066 3065 3064 3063 3062 3061 3060 3059 3058 3058 3056 3055 3054 3053 3052 3051 3050 3049 3048 3047 3045 3044 3043 3042 3041 3040 3038 3037 3036 3034 3033 3032 3031 3029 3028 3027 3026 3025 3023 3022 3021 3019 3018 3017 3016 3014 3013 3012
3109 3109 3108 3108 3108 3107 3107 3106 3105 3105 3104 3103 3103 3102 3102 3101 3100 3099 3098 3098 3097 3096 3095 3094 3093 3091 3090 3089 3088 3087 3086 3085 3084 3083 3083 3082 3081 3080 3079 3078 3077 3076 3075 3073 3073 3072 3070 3069 3068 3067 3067 3067 3065 3063 3063 3063 3062 3061 3060 3058 3058 3057 3056 3055 3054 3053 3052 3051 3050 3049 3048 3047 3046 3044 3043 3043 3041 3040 3039 3038 3037 3035 3034 3033 3031 3030 3028 3027 3026 3024 3023 3022 3021 3019 3018 3017 3015 3014 3013 3011 3010 3008 3007
3108 3108 3107 3107 3106 3106 3105 3105 3104 3103 3103 3102 3102 3101 3100 3099 3098 3098 3097 3096 3095 3094 3093 3092 3091 3090 3088 3088 3087 3086 3085 3084 3083 3081 3081 3080 3079 3078 3077 3076 3075 3074 3073 3072 3070 3069 3068 3066 3065 3063 3063 3063 3063 3062 3059 3058 3058 3058 3057 3055 3054 3053 3053 3052 3051 3050 3049 3048 3047 3046 3045 3043 3042 3041 3040 3039 3038 3037 3036 3035 3033 3032 3031 3029 3028 3026 3025 3023 3022 3020 3019 3018 3016 3015 3013 3012 3011 3009 3008 3007 3005 3004 3003
3107 3106 3106 3105 3105 3104 3104 3103 3103 3102 3102 3101 3100 3099 3098 3098 3097 3096 3095 3094 3093 3092 3091 3090 3089 3088 3087 3086 3085 3084 3083 3082 3081 3080 3078 3078 3077 3076 3074 3073 3072 3071 3070 3068 3067 3066 3064 3063 3062 3060 3059 3058 3058 3059 3058 3056 3054 3053 3053 3052 3051 3050 3049 3048 3047 3046 3045 3044 3043 3042 3041 3040 3039 3038 3036 3035 3034 3033 3032 3031 3030 3028 3027 3025 3024 3022 3021 3019 3018 3016 3015 3013 3012 3010 3008 3007 3006 3004 3003 3002 3000 2999 2998
3105 3105 3104 3104 3103 3103 3103 3102 3101 3101 3100 3099 3098 3098 3097 3096 3095 3094 3093 3092 3091 3090 3089 3088 3087 3086 3085 3084 3083 3082 3081 3080 3079 3078 3077 3076 3075 3073 3072 3071 3070 3068 3067 3066 3064 3063 3062 3060 3059 3057 3056 3054 3053 3053 3055 3054 3052 3050 3049 3048 3047 3046 3046 3045 3043 3043 3042 3041 3040 3038 3038 3036 3035 3034 3033 3032 3030 3029 3028 3027 3026 3024 3022 3021 3019 3018 3016 3015 3013 3012 3010 3009 3007 3005 3004 3002 3001 2999 2998 2996 2995 2993 2992
3104 3103 3103 3103 3102 3102 3101 3101 3100 3099 3099 3098 3097 3096 3095 3094 3093 3092 3091 3090 3089 3088 3087 3086 3085 3084 3083 3082 3081 3080 3079 3078 3077 3076 3075 3074 3073 3071 3070 3069 3068 3066 3065 3063 3062 3060 3059 3057 3056 3054 3053 3051 3050 3049 3049 3050 3049 3048 3046 3045 3043 3042 3042 3041 3040 3039 3038 3037 3036 3035 3034 3033 3031 3030 3029 3028 3026 3025 3024 3022 3021 3019 3018 3016 3014 3013 3011 3010 3008 3007 3005 3004 3002 3001 2999 2997 2996 2994 2993 2991 2989 2988 2987